Volver al catálogo

STARLINK-5320

ActivoComunicacionesVLEO
NORAD 55289·PAYLOAD·🇺🇸 United States

Lanzado Jan 19, 2023 desde Vandenberg Space Force Base

Loading…

Próximos Pases (próximas 24 horas)

TLE

ActualizadoSource: CelesTrak SupGP

Época: Sep 14, 2026, 20:53 UTC

1 55289C 23010W   26257.87062500  .00065005  00000+0  54478-2 0  2577
2 55289  69.9992 267.5479 0004163 266.5671 124.9190 14.98293951    10

Sigue STARLINK-5320 en tiempo real con AllMySat

Download on the App Store